This demonstration page uses our WeatherBlox Daily Observations layout. Learn more.

Left ArrowRight Arrow

Hourly Observations for February 25, 2016

Temp ( °F °C ) Dew Point ( °F °C ) Humidity (%) Winds ( mph kmh ) Pressure ( in mb ) Visibility ( mi km ) Precip ( " mm )
12:09 am 00:09 Cloudy with Light Snow 34 1.1 30 -1.1 85 85 NNW 18 30 30.18 1022 3 5 0.00 0.03
12:50 am 00:50 Cloudy with Light Snow 34 1 30 -1 87 87 NNW 16 26 30.21 1023 2 3 0.00 0.00
12:54 am 00:54 Cloudy with Light Snow 34 1.1 31 -0.6 89 89 NNW 17 28 30.16 1021 2 3 0.00 0.03
1:08 am 01:08 Cloudy with Light Snow 34 1.1 31 -0.6 89 89 NNW 15 24 30.21 1023 3 5 0.00 0.03
1:35 am 01:35 Cloudy 35 1.7 30 -1.1 82 82 NNW 16 26 30.21 1023 10 16 0.01 0.25
1:54 am 01:54 Cloudy 34 1.1 29 -1.7 82 82 NW 15 24 30.17 1022 10 16 0.01 0.25
2:54 am 02:54 Partly Cloudy 33 0.6 27 -2.8 78 78 NW 13 20 30.19 1022 10 16 0.00 0.00
3:54 am 03:54 Clear 31 -0.6 26 -3.3 82 82 NW 14 22 30.19 1023 10 16 0.00 0.00
4:54 am 04:54 Mostly Clear 31 -0.6 26 -3.3 82 82 NW 16 26 30.21 1023 10 16 0.00 0.00
5:54 am 05:54 Clear 31 -0.6 25 -3.9 79 79 NW 14 22 30.24 1024 10 16 0.00 0.00
6:54 am 06:54 Mostly Cloudy 30 -1.1 25 -3.9 82 82 NNW 10 17 30.27 1025 10 16 0.00 0.00
7:54 am 07:54 Cloudy 32 0 25 -3.9 75 75 NNW 18 30 30.29 1026 10 16 0.00 0.00
8:54 am 08:54 Mostly Cloudy 35 1.7 25 -3.9 67 67 NNW 18 30 30.32 1027 10 16 0.00 0.00
9:54 am 09:54 Cloudy 35 1.7 24 -4.4 64 64 NNW 17 28 30.35 1028 10 16 0.00 0.00
10:54 am 10:54 Cloudy 37 2.8 24 -4.4 59 59 NNW 17 28 30.38 1029 10 16 0.00 0.00
11:54 am 11:54 Cloudy 37 2.8 24 -4.4 59 59 N 20 31 30.40 1030 10 16 0.00 0.00
12:54 pm 12:54 Cloudy 37 2.8 23 -5 57 57 NNW 18 30 30.41 1030 10 16 0.00 0.00
1:54 pm 13:54 Cloudy 37 2.8 22 -5.6 54 54 NNW 17 28 30.41 1030 10 16 0.00 0.00
2:54 pm 14:54 Cloudy 37 2.8 22 -5.6 54 54 NNW 14 22 30.42 1030 10 16 0.00 0.00
3:54 pm 15:54 Cloudy 37 2.8 22 -5.6 54 54 N 15 24 30.41 1030 10 16 0.00 0.00
4:54 pm 16:54 Cloudy 37 2.8 22 -5.6 54 54 NNW 13 20 30.42 1030 10 16 0.00 0.00
5:54 pm 17:54 Cloudy 36 2.2 23 -5 59 59 N 8 13 30.42 1030 10 16 0.00 0.00
6:54 pm 18:54 Cloudy 35 1.7 23 -5 61 61 NNW 5 7 30.43 1031 10 16 0.00 0.00
7:54 pm 19:54 Clear 32 0 21 -6.1 64 64 Calm 30.42 1030 10 16 0.00 0.00
8:54 pm 20:54 Clear 26 -3.3 20 -6.7 78 78 Calm 30.40 1030 10 16 0.00 0.00
9:54 pm 21:54 Clear 28 -2.2 21 -6.1 75 75 Calm 30.40 1030 10 16 0.00 0.00
10:54 pm 22:54 Clear 26 -3.3 20 -6.7 78 78 Calm 30.39 1029 10 16 0.00 0.00
11:54 pm 23:54 Clear 26 -3.3 20 -6.7 78 78 Calm 30.38 1029 10 16 0.00 0.00

Powered by AerisWeather